Location: Hac?musa Deresi
(39.1694°N, 32.2508°E)
Time: 11:51:02
(UTC+00:00)

Daily predictions for brighter satellites

Satellite Brightness Start Highest point End
(mag) Time Altitude Azimuth Time Altitude Azimuth Time Altitude Azimuth
RESURS DK-1 2.2 16:58:30 10° SSW 17:02:26 75° ESE 17:06:23 10° NNE
SL-8 Rocket 4.0 16:56:28 10° S 17:02:38 66° E 17:08:53 10° NNE
USA 238 DEB 4.2 16:55:18 10° NNW 17:02:47 63° NE 17:10:50 10° SE
USA 238 4.2 16:55:29 10° NNW 17:02:57 62° NE 17:11:01 10° SE
Cosmos 2278 Rocket 2.2 16:59:45 10° NNW 17:05:26 73° ENE 17:11:04 10° SSE
Timation 2 Rocket 4.2 17:02:37 10° NNW 17:09:03 68° ENE 17:15:42 10° SSE
SL-8 R/B 3.8 17:07:17 10° WSW 17:12:01 83° NNW 17:16:46 10° ENE
OAO 2 Rocket 3.7 17:07:19 10° WSW 17:12:20 50° S 17:17:15 10° E
Cosmos 1125 Rocket 3.5 17:07:39 10° S 17:12:48 66° ESE 17:18:01 10° NNE
HBTSS-SV1 4.4 17:09:10 10° WSW 17:13:36 79° SSE 17:18:02 10° E
Cosmos 2341 Rocket 4.0 17:09:09 10° S 17:15:22 80° E 17:21:43 10° N
ERS-1 Rocket 4.1 17:14:23 10° ESE 17:18:29 26° ENE 17:22:36 10° NNE
CSL-04 Debris 4.4 17:14:57 10° SE 17:20:05 50° ENE 17:25:16 10° N
Cosmos 2366 rocket 3.9 17:14:04 10° S 17:20:12 82° E 17:26:22 10° N
In-Cosmos 22 Rocket 4.4 17:17:57 10° NNW 17:23:15 73° W 17:28:34 10° S
Cosmos 44 3.5 17:24:57 10° SSW 17:29:45 54° ESE 17:34:51 10° NE
SL-16 R/B 2.6 17:26:59 10° S 17:32:13 40° ESE 17:37:29 10° NE
NOSS 3 (A) 3.3 17:32:57 10° SSW 17:34:49 46° ESE 17:35:24 29° ENE
Okean O Rocket 3.3 17:38:37 14° E 17:40:01 16° ENE 17:42:41 10° NNE
Cosmos 1378 Rocket 3.7 17:36:47 10° N 17:41:03 52° E 17:44:31 15° SSE
SPOT 5 2.9 17:42:10 10° S 17:46:43 72° WSW 17:51:08 10° NNW
CZ-4 R/B 1.1 17:43:54 13° SSE 17:47:08 75° ENE 17:50:50 10° N
PAYLOAD B 4.3 17:47:02 15° SSE 17:51:34 60° ENE 17:56:58 10° N
Meteor 2-8 Rocket 4.5 17:46:29 10° S 17:52:23 57° E 17:58:18 10° NNE
Cosmos 1656 Rocket 3.9 17:47:23 10° NNW 17:52:44 51° ENE 17:56:01 23° SE
Cosmos 2239 Rocket 4.5 17:48:38 10° S 17:54:41 61° E 18:00:48 10° NNE
Cosmos 1821 Rocket 4.1 17:49:28 10° S 17:55:44 80° W 18:02:07 10° N
IRAS Rocket 4.3 17:50:29 10° SSE 17:55:58 80° WSW 18:01:28 10° NNW
Terra 2.0 17:53:33 22° SE 17:56:22 51° ENE 18:00:55 10° N
Cosmos 1733 Rocket 3.8 17:52:49 10° SSW 17:57:05 54° W 18:01:24 10° N
Cosmos 1025 Rocket 3.4 17:53:52 10° N 17:57:58 44° E 17:59:42 28° SE
CZ-4B R/B 4.1 17:55:16 11° S 17:58:45 63° W 18:02:34 10° NNW
Cosmos 2237 Rocket 4.2 17:55:18 10° WSW 18:00:19 32° WNW 18:05:23 10° N
Cosmos 2242 Rocket 3.9 17:57:03 10° NNW 18:01:27 67° W 18:05:47 10° S
Helios 1A Rocket 3.0 17:59:05 10° N 18:02:13 54° WNW 18:05:19 10° SSW
CSL-04 Rocket 4.3 17:59:51 10° S 18:05:17 58° W 18:10:46 10° NNW
Cosmos 2150 Rocket 3.9 18:01:44 10° S 18:06:47 65° ESE 18:11:56 10° NNE
Cosmos 1300 Rocket 4.2 18:11:23 33° E 18:11:27 33° E 18:15:17 10° NNE
Meteor 2-16 Rocket 4.4 18:10:27 10° N 18:16:35 75° E 18:20:28 24° SSE
Cosmos 1000 Rocket 4.4 18:10:58 10° N 18:17:06 70° E 18:20:46 25° SSE
USA 59 Rocket 0.3 18:16:24 10° NW 18:20:07 60° WSW 18:22:13 31° S
Cosmos 1346 Rocket 2.4 18:16:33 10° N 18:20:10 87° E 18:20:53 55° SSE
OAO 3 Rocket 3.7 18:16:50 10° W 18:21:12 41° SSW 18:22:05 37° SSE
Gbstr 26 Del rocket 3.3 18:15:55 10° SW 18:21:24 61° SE 18:24:22 21° ENE
Feng Yun 1-1 Rocket 4.5 18:17:10 16° S 18:21:40 67° WSW 18:27:04 10° NNW
ASTEX 1 3.5 18:20:30 38° SE 18:22:02 55° E 18:26:50 10° N
SL-4 R/B 1.6 18:19:23 10° SW 18:23:09 71° SE 18:23:55 53° ENE
Meteor 1-31 Rocket 4.4 18:21:36 11° SSW 18:24:27 27° W 18:27:31 10° NW
Cosmos 2297 4.3 18:21:55 10° N 18:27:20 41° ENE 18:28:49 35° E
ADEOS 3.5 18:25:50 29° S 18:28:35 84° WSW 18:33:49 10° NNW
Cosmos 1869 3.3 18:32:16 53° NE 18:32:16 53° NE 18:35:11 10° NNE
Cosmos 2369 Rocket 2.5 18:26:27 10° NNW 18:31:52 49° ENE 18:33:13 41° ESE
Cosmos 1315 Rocket 4.5 18:34:16 20° NE 18:34:16 20° NE 18:35:44 10° NNE
Cosmos 2285 Rocket 4.0 18:26:49 10° SSW 18:33:12 83° WNW 18:39:34 10° NNE
USA 234 3.5 18:27:26 10° NE 18:33:56 69° NW 18:40:26 10° WSW
SL-08 R/B 3.7 18:32:57 10° N 18:37:50 68° WNW 18:42:30 11° SSW
USA 186 4.4 18:43:56 10° N 18:43:56 10° N 18:43:58 10° N
Cosmos 1943 3.2 18:41:49 45° SSE 18:43:14 59° ESE 18:48:49 10° NNE
Cosmos 2221 Rocket 3.6 18:40:08 10° N 18:44:34 80° W 18:45:18 61° SSW
YAOGAN 11 4.0 18:40:21 10° N 18:44:40 80° WNW 18:45:52 47° SSW
CZ-4B R/B 3.7 18:41:50 25° S 18:45:05 57° W 18:50:39 10° NNW
SL-08 R/B 4.4 18:44:31 10° N 18:50:47 89° WSW 18:53:09 41° S
CZ-4B R/B 4.4 18:52:52 22° NNE 18:52:52 22° NNE 18:54:21 10° N
HBTSS-SV1 4.4 18:50:53 10° W 18:55:12 79° NNW 18:55:12 79° NNW
OAO 2 Rocket 3.7 18:51:39 10° W 18:56:05 48° SSW 18:56:05 48° SSW
ERS-1 Rocket 4.3 18:54:02 18° SSW 18:56:59 34° W 19:01:31 10° NNW
Cosmos 1975 Rocket 4.1 18:55:55 10° N 18:58:58 36° NE 18:58:58 36° NE
Cosmos 2263 4.1 18:57:15 10° NNW 19:02:54 68° ENE 19:03:18 65° E
Okean-O 3.0 19:07:12 58° WSW 19:07:13 58° W 19:11:33 10° NNW
BREEZE-M DEB (TANK) 4.3 19:05:03 10° NW 19:06:41 27° N 19:06:41 27° N
Spot 3 4.5 19:08:57 74° S 19:09:24 84° WSW 19:14:45 10° NNW
CZ-4B R/B 3.7 19:15:34 56° NNE 19:15:34 56° NNE 19:19:30 10° N
Okean O Rocket 2.5 19:15:51 43° W 19:15:51 43° W 19:19:57 10° NNW
SL-16 R/B 4.1 19:11:36 10° WSW 19:16:24 28° WNW 19:21:14 10° N
Ariane Rocket 3.3 19:17:09 54° NE 19:17:09 54° NE 19:21:22 10° N
Cosmos 1782 Rocket 4.5 19:21:41 44° WNW 19:21:41 44° WNW 19:25:39 10° N
Spot 2 Rocket 4.4 19:23:15 38° WSW 19:23:57 40° W 19:28:40 10° NNW
Milstar 3 4.2 19:18:27 10° SW 19:41:39 - E 19:24:34 37° S
USA 245 4.2 19:28:49 62° WNW 19:28:49 62° WNW 19:33:35 10° NNW
Cosmos 1269 Rocket 4.3 19:25:30 10° NNW 19:29:59 64° N 19:29:59 64° N
ATLAS 5 CENTAUR R/B 3.8 19:29:56 10° N 19:31:56 17° NNE 19:31:56 17° NNE
Cosmos 1140 Rocket 3.8 19:28:38 10° NNW 19:32:51 61° NNW 19:32:51 61° NNW
NOSS 3-1 (C) 4.1 19:26:32 10° NW 19:34:03 83° WSW 19:35:43 63° SSE
Terra 4.2 19:32:09 12° WSW 19:34:09 15° W 19:36:50 10° WNW
Cosmos 1447 Rocket 4.4 19:37:12 10° N 19:43:03 78° N 19:43:03 78° N
BREEZE-M DEB (TANK) 3.5 19:39:51 10° NW 19:43:46 84° NE 19:43:55 83° ENE
COSMOS 2455 3.3 19:53:15 10° NNW 19:58:10 56° N 19:58:10 56° N
SJ 16-02 3.7 20:02:43 10° N 20:04:02 19° N 20:04:02 19° N
Cosmos 2369 Rocket 4.1 20:11:22 10° NW 20:14:59 21° W 20:14:59 21° W
SeaSat 1 4.5 20:17:06 21° NNE 20:17:06 21° NNE 20:19:28 10° N
NOSS 3-1 (A) 4.1 20:26:13 10° NW 20:33:20 74° W 20:33:20 74° W
ATLAS 3B R/B 4.3 21:00:11 10° NNW 21:06:49 29° NE 21:08:30 27° ENE
Cosmos 1833 Rocket 4.5 21:19:39 27° NNE 21:19:39 27° NNE 21:22:06 10° NNE
ATLAS 2AS CENTAUR R/B 3.5 21:38:07 47° N 21:38:07 47° N 21:43:20 10° NNE
CZ-2C R/B 4.5 21:47:41 28° NNE 21:47:41 28° NNE 21:50:18 10° N
ACS3 Solar Sail 3.6 21:58:21 10° NE 22:01:13 22° ENE 22:01:13 22° ENE
CZ-4C R/B 4.4 22:20:44 16° NE 22:20:44 16° NE 22:21:47 10° NE
Cosmos 1980 Rocket 3.9 22:24:07 10° NNW 22:26:38 27° NNW 22:26:38 27° NNW
ATLAS 3B R/B 3.6 22:50:37 10° NW 22:55:41 44° NW 22:55:41 44° NW
Cosmos 2082 Rocket 3.5 23:02:51 35° N 23:02:51 35° N 23:06:22 10° NNE
Cosmos 2333 Rocket 3.9 22:56:28 10° N 23:01:16 27° ENE 23:02:06 26° ENE
USA 267 4.5 22:58:02 10° ENE 23:02:10 31° E 23:02:10 31° E
Cosmos 2322 Rocket 4.3 23:08:10 10° N 23:12:30 22° NE 23:16:04 13° E
SL-16 R/B 3.0 23:23:00 10° NNW 23:27:50 48° NE 23:27:50 48° NE
Cosmos 2279 Rocket 4.3 23:43:05 59° NNW 23:43:05 59° NNW 23:48:15 10° N
ACS3 Solar Sail 2.6 23:40:14 10° N 23:44:47 40° NW 23:44:47 40° NW
IDEFIX/ARIANE 42P 3.4 23:42:40 10° N 23:46:20 47° N 23:46:20 47° N
ADEOS Rocket 3.6 23:42:56 10° NNE 23:50:38 72° ESE 23:52:01 61° SSE
Cosmos 1763 Rocket 4.1 23:52:00 54° NE 23:52:00 54° NE 23:56:11 10° NNE
